Погода в Паликах

Россия / Калужская область     53°50′55″N   34°58′52″E
темп.,
°C
ветер,
м/с
пор.,
м/с
влажн.,
%
обл.,
%
осадки,
мм/ч
давл.,
гПа
погр.,
м
12 апреля, пн
пн1200:00+6в227399 0.0 103140
03:00+5всв2476100 0.0 103169
06:00+4всв31079100 0.0 1030215
09:00+8всв41352100 0.0 1029554
12:00+11в486395 0.0 1027742
15:00+12в4770100 0.0 1026606
18:00+13в3874100 0.0 1024560
21:00+10в3129184 0.0 1024297
13 апреля, вт
вт1300:00+10вюв3148192 0.0 1023345
03:00+8юв3118599 0.0 1023212
06:00+7юв3990100 0.0 1023163
09:00+13юв376673 0.0 1023304
12:00+18ююв584778 0.0 10221188
15:00+19ююв594379 0.0 10211863
18:00+17ююв4952100 0.0 1021684
21:00+12юв296676 0.0 1021201
14 апреля, ср
ср1400:00+12ююв227596 0.0 102040
03:00+10юв238679 0.0 102064
06:00+9юв138782 0.0 101971
09:00+13ю377279 0.0 1019527
12:00+17ююв4658100 0.9 10171240
15:00+15ю2564100 1.3 1017371
18:00+16юв1160100 0.1 101619
21:00+12ююв31061100 0.1 1017306
15 апреля, чт
чт1500:00+10ююв238195 0.1 101674
03:00+9юв2389100 0.1 101755
06:00+9ююв229399 0.0 101645
09:00+12юв2477100 0.0 1017388
12:00+12ююв1478100 0.4 1017332
15:00+14в1362100 0.4 1016907
18:00+13св2472100 1.1 101468
21:00+10св258285 1.3 101496
16 апреля, пт
пт1600:00+8св248822 0.0 101466
03:00+7всв38937 0.0 1014195
06:00+7всв399722 0.0 1014217
09:00+12в4878100 0.1 1014501
12:00+15вюв466599 1.9 10141186
15:00+13в5982100 4.5 1015593
18:00+13в4877100 2.6 1016422
21:00+9всв359494 3.3 1018116